Location: Bakhuizen
(52.8696°N, 5.4575°E)
Time: 13:04:23
(UTC+00:00)

COSMOS 2406 - Pass Details

Date: 11 May 2021
Orbit: 844 x 862 km, 71.0° (Epoch: 19 June)

Event Time Altitude Azimuth Distance (km) Brightness Sun altitude
Rises 19:56:25 0° 328° (NNW) 3,417 8.0 -4.9°
Reaches altitude 10° 19:58:54 10° 332° (NNW) 2,478 7.0 -5.2°
Maximum altitude 20:04:34 65° 54° (NE) 934 3.4 -5.8°
Drops below altitude 10° 20:10:11 10° 136° (SE) 2,468 4.9 -6.5°
Enters shadow 20:10:42 - 137° (SE) 2,663 5.1 -6.5°
